KIAH

Houston/George Bush Intercontinental Airport

Airport
ICAO code
KIAH
IATA Code
IAH
Summary
ICAO Region
NAM
ICAO Territory
Location

Aldine, Texas

Serving
Houston
Elevation
97 ft
Coordinates
29° 59' 4" N , 95° 20' 29" W
KCC
Airport LOS
Parallel Runway Operation
Airport WX
Tropical Revolving Storm
Metar
KIAH 201553Z 12007KT 10SM SCT015 BKN055 BKN250 27/22 A3000 RMK AO2 SLP160 T02670217

International airport located 23 miles north of Houston, Texas, USA. Originally named Houston Intercontinental Airport, it was later renamed after President George H. W. Bush.

 

Airport map

Aerial View

SKYbrary Partners:

Safety knowledge contributed by: